Location: Home
(42.5358°N, 72.7383°W)
Time: 10:37:12
(UTC-05:00)

S-56A Canister/Altair - Pass Details

Date: 08 December 2021
Orbit: 634 x 2499 km, 38.9° (Epoch: 22 January)

Event Time Altitude Azimuth Distance (km) Brightness Sun altitude
Rises 01:59:13 0° 274° (W) 4,794 - -55.5°
Reaches altitude 10° 02:02:57 10° 271° (W) 3,500 - -54.9°
Maximum altitude 02:11:02 57° 196° (SSW) 1,189 - -53.5°
Drops below altitude 10° 02:16:30 10° 118° (ESE) 2,393 - -52.6°
Sets 02:18:38 0° 114° (ESE) 3,184 - -52.2°
